STARLINK-1418 (45708 NORAD) Tracking and Keplerian Element Data

This shows tracking and keplerian element data for the satellite.

Feedback or suggestion? Click here.




ElementValue
Catalog45708
NameSTARLINK-1418
Epoch Orbit568
Epoch Day186.50001157
Epoch Year2020
RAAN20.069
Inclination53.0014
Eccentricity0.0001397
Argument of Perigee75.4577
Mean Anonmoly228.2063
Mean Motion15.62733017
Decay Rate0.00046501
L11 45708U 20035BD 20186.50001157 .00046501 00000-0 51116-3 0 9993
L22 45708 53.0014 20.0690 0001397 75.4577 228.2063 15.62733017 5688

Live tracking and technical data element details for STARLINK-1418 (NORAD 45708). STARLINK-1418 can be tracked NOW for your location showing map with azimuth and elevation plus other details from your city location.

Track the satellite on the map from your city or location and see movement details for azimuth, elevation, latitude, longitude, range, height, and movement on the map or in text.







IsCatalogInMostPopularTable: catalog: 45708, numindb: 4
Update: records affected: 1



GetName: 45708 STARLINK-1418

Hit Count: updated at: Sun, 05 Jul 2020 16:01:18 GMT